ECMWFFLT1_250_spd_270.txt.gz
Wind_Speed
116 117 118 119 119 120 121 122 124 125 126 127 128 129 130 132 132 133 134 135 135 135 136 137 137 137 137 137 138 138 138 139 139 139 140 140 140 140 140 140 138 137 136 137 137 137 138 138 138 137 137 135 134 132 132 131 131 131 131 131 131 132 132
116 117 117 118 119 120 121 122 123 124 125 126 127 128 130 131 132 133 134 134 134 135 135 136 136 136 136 136 137 137 137 137 137 137 137 137 137 137 136 136 134 132 131 129 130 130 131 131 130 130 129 127 125 124 125 125 125 126 127 127 127 128 128
115 115 116 117 118 118 119 120 121 122 123 124 125 126 128 129 130 131 132 132 133 133 133 133 134 133 133 133 133 133 133 132 132 132 132 132 131 131 130 129 128 126 124 122 122 123 124 125 125 124 123 122 121 120 121 122 122 123 124 125 125 125 125
111 112 112 113 113 114 114 115 115 116 116 117 118 119 121 122 123 124 125 126 126 126 126 126 127 126 126 126 126 126 126 125 125 125 125 125 125 124 124 123 123 121 119 118 118 119 120 120 120 120 120 119 118 118 119 119 120 121 122 122 122 122 122
105 105 105 105 105 105 105 106 106 106 107 107 108 110 111 113 114 115 116 117 117 118 118 118 119 119 119 119 119 119 120 120 119 119 119 119 119 119 119 119 119 118 117 116 115 116 117 117 117 117 117 116 115 115 116 117 118 118 119 119 119 119 118
96 95 96 96 96 96 97 97 98 98 98 99 100 101 103 104 106 107 108 110 110 111 112 112 113 114 114 114 114 115 115 115 115 115 115 116 116 116 116 116 116 116 115 115 114 114 114 114 114 114 115 115 114 113 114 114 115 115 116 115 115 115 115
87 87 87 88 88 89 89 89 90 90 91 92 93 95 96 98 100 101 103 105 106 107 108 109 110 111 111 112 112 112 112 111 111 111 112 113 113 114 114 114 114 114 114 113 113 112 112 112 112 113 113 113 113 111 111 111 110 110 111 111 111 111 111
80 80 80 81 82 82 83 84 85 86 87 88 90 91 93 95 96 99 101 103 104 106 106 107 108 109 109 110 109 109 108 108 108 109 110 111 112 113 113 113 113 113 113 112 112 112 111 111 111 111 111 111 110 108 108 107 106 105 105 105 106 107 107
76 77 77 78 80 81 82 83 85 85 86 87 89 90 92 94 96 98 100 102 103 105 105 106 106 107 107 107 107 106 106 107 108 109 111 112 113 113 113 113 113 113 113 112 112 111 111 110 109 109 108 107 106 104 103 103 102 101 101 100 100 103 104
75 76 78 79 80 82 83 84 85 85 86 87 89 90 92 94 97 98 99 101 102 103 104 105 106 106 107 107 106 107 107 109 110 111 112 113 113 113 113 112 112 112 112 111 110 109 108 107 106 105 104 102 101 100 99 98 98 98 97 96 96 98 101
76 78 79 80 81 82 83 84 85 85 86 88 89 90 92 94 96 98 99 100 101 103 105 106 107 108 109 109 108 109 110 111 111 112 113 113 113 112 111 110 110 109 109 108 107 106 105 102 101 100 99 97 96 96 95 95 95 95 94 93 93 94 96
78 79 80 81 82 83 84 85 85 86 87 88 88 89 90 93 96 99 101 103 105 106 108 109 110 110 111 111 110 110 111 111 111 112 113 112 111 110 108 107 106 105 104 103 102 101 100 98 96 95 95 94 92 92 92 92 93 93 91 91 92 92 93
79 80 81 81 82 83 85 86 86 86 86 87 89 90 91 94 97 100 103 106 108 109 110 111 111 111 112 112 111 111 110 109 110 110 110 109 108 106 104 103 102 101 100 98 97 96 96 94 92 91 91 91 90 89 89 89 90 91 90 90 91 92 92
80 81 81 82 82 84 85 86 86 86 88 89 91 93 94 97 99 102 105 107 109 110 110 111 110 110 110 110 110 109 107 106 106 106 106 105 103 102 100 99 98 97 96 94 92 91 91 90 89 88 88 88 88 87 87 87 87 88 88 88 90 91 91
81 81 81 81 82 84 86 88 89 89 91 92 94 95 97 99 101 103 106 107 108 109 109 108 107 106 106 106 106 105 103 102 101 101 101 100 99 98 96 95 94 93 92 91 89 88 87 87 86 86 86 86 86 86 85 86 86 87 86 86 88 89 90
81 81 82 83 84 86 89 91 92 92 93 95 96 97 99 100 102 104 106 107 107 106 106 105 104 102 101 100 100 100 99 98 97 97 97 96 95 94 93 91 90 90 89 88 87 85 85 85 85 85 85 85 85 85 84 85 85 86 85 85 86 87 88
82 83 84 86 87 89 91 94 94 94 95 97 98 98 99 101 103 104 105 105 104 104 103 102 100 97 95 95 95 95 94 93 93 93 92 91 91 90 89 88 87 87 86 85 84 83 83 83 83 83 83 84 84 83 83 83 84 85 85 85 84 84 85
84 86 87 89 90 91 93 96 97 97 97 98 98 99 100 101 102 103 103 102 101 101 100 98 95 92 90 91 91 91 90 89 89 89 88 87 86 86 86 85 84 83 83 82 82 82 82 82 82 82 82 83 83 83 83 83 84 84 85 84 84 83 83
86 88 90 91 92 94 96 97 99 99 99 99 99 100 100 101 101 101 100 99 98 97 96 94 92 89 88 88 88 88 87 86 85 85 84 83 82 82 82 81 81 80 80 80 81 81 81 81 81 81 81 82 83 84 84 85 85 85 85 84 83 83 82
88 90 92 94 95 97 98 99 100 101 101 100 100 101 101 101 100 99 96 95 94 94 94 92 89 87 86 86 85 84 84 83 82 81 81 79 78 78 78 78 78 77 77 78 79 80 80 80 80 81 81 82 83 84 84 85 85 85 84 83 82 82 81
91 92 95 97 98 99 100 101 101 102 102 101 101 102 101 100 99 96 93 91 92 92 91 89 87 85 84 83 82 81 81 80 79 78 77 76 75 75 75 75 75 75 76 76 77 78 79 79 79 80 81 81 82 83 83 84 85 84 83 82 81 81 80
93 95 97 100 101 102 102 102 102 103 102 102 102 102 101 100 97 93 90 90 91 90 89 87 86 84 82 81 80 79 78 77 76 75 74 74 73 72 72 72 72 73 74 75 76 76 77 77 78 79 80 80 81 81 82 82 83 83 82 81 81 81 79
96 97 99 102 103 104 103 103 103 102 102 101 101 102 101 98 94 91 89 89 89 88 87 86 85 83 81 79 78 78 77 75 74 73 73 72 71 71 70 70 70 71 72 73 74 74 75 76 76 77 78 78 79 80 80 81 82 83 81 80 81 82 81
99 100 101 103 105 105 105 104 103 102 101 100 101 101 99 95 92 90 89 88 87 85 85 84 83 81 80 78 77 76 75 74 73 73 72 71 70 69 68 68 68 69 70 71 72 73 74 74 74 75 75 76 78 79 80 81 82 82 81 80 81 83 83
101 102 103 103 104 105 105 104 103 102 100 100 100 99 96 92 90 89 88 86 84 82 82 82 81 79 78 77 76 75 74 73 72 72 71 70 68 67 67 67 67 68 69 70 70 71 72 72 72 73 73 75 77 79 80 80 81 81 80 80 81 83 83
102 103 103 102 103 104 104 104 103 102 100 99 98 96 92 89 89 88 86 83 81 80 79 79 78 77 76 75 74 73 72 72 71 70 70 68 66 66 66 66 66 67 68 68 68 69 69 70 71 72 73 75 78 80 80 80 80 80 80 80 80 81 82
103 103 102 101 102 102 102 103 103 102 100 98 96 92 89 88 87 86 83 81 79 78 77 76 75 75 74 73 73 72 71 70 70 69 68 66 65 65 65 65 66 66 66 66 67 67 68 69 71 72 74 76 78 80 81 81 80 79 79 79 79 79 80
103 102 101 100 100 101 101 102 102 101 99 98 94 90 88 87 86 84 81 79 77 76 75 75 74 73 72 72 71 71 70 69 68 67 66 64 64 64 65 65 65 65 65 65 65 66 68 69 71 73 75 77 79 80 81 81 80 79 78 78 77 77 78
103 102 100 99 99 99 99 100 101 101 99 97 92 88 86 85 84 81 79 76 75 75 74 73 72 72 71 70 70 70 69 67 66 64 63 63 63 63 64 64 65 64 64 65 65 66 68 69 71 74 76 77 79 80 82 81 80 78 77 77 77 76 77
102 101 99 97 97 97 97 98 99 100 99 96 91 86 84 83 82 79 77 74 73 73 73 72 71 70 70 69 69 68 67 65 63 62 62 62 62 63 63 64 64 64 64 65 65 67 68 70 71 73 76 77 78 80 81 81 80 78 77 77 76 75 76
101 99 97 95 95 96 96 96 97 98 97 94 89 85 82 80 79 76 74 72 72 72 71 70 70 70 69 68 68 67 66 64 62 61 61 61 62 62 62 63 63 64 64 65 66 67 69 70 72 73 76 77 78 79 80 80 79 78 77 77 75 74 75
99 97 95 94 94 94 95 95 96 96 94 90 86 82 81 78 76 73 71 70 70 70 69 68 68 68 68 67 67 66 64 62 60 59 59 60 61 62 62 62 63 63 64 65 66 67 69 71 72 74 75 76 78 79 79 79 78 78 77 76 75 74 74
98 95 94 93 92 91 92 93 94 94 91 86 81 79 79 77 73 70 69 68 68 68 68 67 67 67 67 67 66 64 62 60 58 58 58 59 60 61 63 63 63 63 64 65 66 68 70 71 73 74 75 76 77 78 78 78 78 78 77 76 74 73 73
95 93 91 91 90 89 89 90 91 90 87 82 78 76 76 74 72 69 67 66 66 66 66 66 66 66 66 65 64 62 60 58 57 57 57 58 59 61 63 64 64 64 64 65 66 68 70 72 73 74 75 75 76 77 77 77 78 78 77 75 73 72 72
95 91 88 87 86 86 86 87 87 86 82 78 75 74 73 71 70 67 66 64 64 64 64 65 65 65 65 64 62 60 57 56 56 57 57 58 59 61 63 64 64 64 64 65 66 68 70 72 73 74 75 75 76 76 77 77 78 77 77 75 73 71 71
96 92 88 84 81 81 82 83 82 81 78 75 73 72 71 69 68 66 65 63 62 62 63 64 64 64 63 62 60 57 56 55 56 57 58 59 60 62 63 64 64 64 64 64 65 68 70 72 73 75 75 75 75 76 77 77 77 77 77 75 73 70 70

ECMWFFLT1_250_spd_276.txt.gz
Wind_Speed
80 80 80 80 80 81 83 84 86 89 91 93 95 97 98 100 102 104 106 107 108 109 111 112 113 113 114 114 114 114 114 114 114 114 114 114 114 114 113 112 111 109 108 109 111 112 113 115 117 118 119 119 118 119 121 121 122 123 124 125 125 124 123
79 78 78 78 78 78 79 80 81 83 86 88 90 92 94 96 97 99 101 102 103 104 104 105 106 106 106 106 107 107 107 107 107 107 107 107 107 106 106 105 103 102 101 101 104 106 108 110 112 114 116 116 116 117 118 119 121 122 122 123 123 122 121
78 77 77 77 77 77 77 78 78 79 81 83 85 86 88 90 92 94 95 96 97 98 98 99 99 100 100 100 100 100 100 100 100 100 100 100 100 99 99 100 100 99 99 98 100 103 105 107 110 112 113 114 114 114 115 117 119 121 121 121 121 120 118
79 77 76 76 76 76 76 76 77 78 79 80 81 82 83 85 86 88 89 90 91 92 92 93 93 94 94 94 94 95 95 95 95 95 95 95 96 96 97 98 99 99 98 97 98 100 102 104 107 109 111 113 112 112 114 116 118 119 119 120 120 119 117
80 78 76 76 75 75 75 75 76 76 77 78 78 80 81 82 83 84 85 86 87 88 89 89 89 89 89 90 90 91 91 92 92 93 93 94 95 95 96 97 98 98 98 97 96 97 99 102 104 106 109 111 111 112 114 116 116 117 117 119 119 118 115
81 79 78 77 76 75 75 74 75 75 76 76 76 77 79 80 81 82 83 85 86 87 87 88 88 88 88 88 89 90 90 91 92 92 93 94 95 95 96 96 97 97 97 96 95 96 98 100 103 106 109 111 112 112 114 115 115 115 115 115 115 115 112
82 81 80 79 78 77 75 75 75 75 75 75 75 76 77 78 79 81 82 84 85 86 87 87 87 87 88 88 89 90 90 91 91 92 93 93 94 94 94 95 95 96 96 96 96 97 99 101 104 107 109 111 112 112 112 112 112 112 112 111 111 110 108
85 83 82 81 80 79 77 77 76 76 75 75 75 76 77 78 79 80 81 83 85 86 86 87 87 87 87 87 88 89 90 91 91 91 92 93 93 93 94 94 95 96 97 97 97 98 100 102 105 108 110 111 111 111 110 109 108 107 108 108 107 106 103
87 86 84 83 82 80 79 79 78 77 76 76 76 76 77 78 79 81 82 84 85 86 87 86 86 87 87 87 88 89 90 90 91 91 92 93 93 94 95 96 98 98 98 98 98 99 101 103 106 109 110 110 110 108 107 106 105 103 103 103 103 103 100
89 88 87 85 83 82 81 80 79 78 78 77 77 77 78 79 80 82 84 86 87 89 89 88 88 88 88 88 89 90 90 91 91 92 93 94 96 97 98 98 99 100 99 99 99 100 103 105 107 109 110 109 107 105 104 104 103 101 100 98 99 100 98
91 90 89 87 85 83 82 81 80 79 79 78 78 78 78 79 81 82 85 87 89 90 91 91 91 91 91 92 92 92 93 93 93 94 95 97 98 99 100 100 100 101 100 100 100 101 104 106 107 109 109 107 104 102 102 101 100 98 97 95 95 96 96
93 92 91 89 87 85 83 83 82 81 80 79 79 79 79 80 82 84 86 88 89 91 92 92 92 93 94 95 95 95 95 94 95 96 97 98 99 101 102 102 102 102 101 100 100 101 104 106 107 107 107 105 102 100 99 98 97 96 94 92 92 93 93
95 94 93 91 89 87 86 85 84 83 81 81 80 79 79 80 82 85 87 89 90 91 92 93 93 94 95 96 96 96 96 96 96 97 98 99 100 102 102 103 103 103 101 100 99 101 103 106 107 106 105 103 100 98 96 95 95 94 92 90 89 90 91
96 95 94 92 90 89 89 88 86 85 84 83 82 81 80 80 82 85 88 90 92 93 93 94 94 95 96 97 97 97 97 96 97 97 98 100 101 102 102 103 104 103 101 99 99 100 102 104 105 104 103 101 99 96 94 92 92 92 90 88 87 88 88
97 96 95 93 92 92 91 90 89 87 87 86 84 83 82 82 83 86 88 91 93 94 94 95 95 96 97 98 98 98 97 97 97 98 99 100 101 102 102 104 104 102 100 99 99 100 102 103 104 102 101 99 98 95 92 90 89 90 88 86 85 86 86
98 97 95 95 94 93 93 92 91 90 89 88 87 86 85 84 85 87 89 91 93 94 94 95 95 96 97 97 98 98 98 98 98 99 99 100 100 101 102 104 104 101 99 99 100 101 102 103 102 101 99 98 96 93 91 88 87 87 86 84 83 84 84
98 97 96 96 95 94 94 94 94 93 92 91 90 88 87 87 88 89 90 92 93 93 94 95 96 96 96 96 97 98 99 99 99 99 100 100 100 101 102 103 103 101 100 100 100 101 102 102 100 99 97 95 94 91 89 87 86 85 84 82 81 81 81
97 97 97 96 96 95 95 96 96 96 95 94 93 91 90 89 90 91 92 92 92 93 94 95 96 96 95 96 97 98 99 99 100 100 99 99 99 100 101 102 102 100 100 100 101 102 102 101 99 97 95 94 92 90 87 85 83 83 82 81 80 79 78
97 97 97 97 97 96 96 97 98 98 97 97 96 94 92 91 92 92 92 92 92 93 95 95 96 95 95 95 96 97 98 99 99 99 99 99 99 100 100 101 100 99 100 101 102 102 101 99 97 95 93 92 90 88 86 84 81 80 79 78 78 78 77
97 97 97 97 97 97 98 99 99 100 100 99 98 97 94 93 93 93 92 91 91 93 95 95 95 95 95 96 96 97 98 99 99 99 98 99 99 99 99 98 98 98 99 101 102 102 100 98 95 93 91 89 88 86 84 82 80 78 77 75 76 77 76
98 98 98 98 98 99 99 100 101 102 102 101 100 99 97 95 94 93 92 91 92 93 94 95 95 96 96 96 96 97 98 98 98 98 98 98 98 98 97 96 96 97 99 100 101 100 99 96 94 91 89 87 85 84 82 80 78 76 75 74 74 74 75
98 98 98 99 100 101 102 103 104 104 104 103 102 101 99 96 94 93 92 91 92 93 94 95 95 96 96 96 97 97 97 97 97 97 97 97 97 96 95 94 94 95 97 99 100 99 97 95 92 89 87 84 82 81 80 78 76 75 73 73 73 73 73
99 99 100 101 102 103 105 105 106 105 105 105 103 102 99 97 96 95 93 92 92 93 94 94 95 95 96 97 97 97 97 96 96 96 96 96 96 95 94 93 93 94 95 97 98 97 95 93 91 87 84 82 81 79 78 76 74 73 72 72 72 73 73
100 100 101 102 104 106 107 107 107 107 106 105 103 101 99 98 97 95 94 93 92 93 93 94 95 96 97 97 97 97 96 96 96 96 95 95 95 94 93 93 93 93 93 94 95 94 92 91 89 86 83 81 79 77 76 75 73 72 72 72 72 72 72
102 102 103 104 106 108 109 109 108 108 106 104 102 100 99 98 97 96 94 93 93 93 93 94 95 96 97 97 97 96 95 95 95 95 94 94 94 93 93 93 93 93 92 92 92 91 89 88 87 84 82 80 77 76 75 74 72 72 72 72 71 71 71
104 105 105 106 107 109 110 110 109 107 105 103 100 99 98 97 97 96 95 94 93 93 92 93 94 95 96 96 95 94 93 93 93 93 93 93 92 92 92 92 93 92 90 89 89 88 86 86 85 83 80 78 76 75 75 73 71 71 73 73 72 70 71
107 107 108 108 109 109 109 109 108 107 104 102 100 99 98 98 97 97 96 95 94 93 93 93 94 95 95 95 93 92 92 92 92 91 91 91 91 90 91 91 91 89 87 86 86 85 84 83 83 81 79 77 75 74 74 72 71 71 73 73 72 70 70
110 110 111 110 110 109 109 108 108 106 104 102 101 100 99 99 99 98 97 96 94 93 93 93 94 95 95 93 92 92 92 91 90 90 90 90 89 89 89 89 88 86 84 83 82 82 81 81 80 78 77 75 73 73 72 72 72 72 72 73 72 70 69
111 112 112 111 110 109 108 108 108 107 104 103 102 101 100 100 100 99 98 96 94 93 92 93 94 94 93 93 92 91 91 90 88 88 88 88 87 87 87 86 85 83 81 80 79 79 79 78 77 76 75 73 72 71 71 71 72 72 73 72 71 70 69
111 111 111 110 109 108 107 107 107 106 104 103 102 101 101 101 100 99 98 96 94 92 93 93 94 93 93 92 91 91 90 88 86 86 86 85 85 84 84 83 82 80 78 77 77 77 76 75 75 74 73 71 70 70 70 71 72 73 72 72 70 69 68
110 109 109 108 107 106 106 105 105 104 104 102 101 101 100 100 99 98 97 96 94 93 93 94 94 93 92 92 91 90 88 86 85 84 84 83 82 82 81 80 79 77 76 75 75 74 73 73 72 71 70 69 68 68 69 71 72 72 72 71 70 69 68
107 107 106 105 104 104 104 103 103 102 101 101 101 100 100 98 97 96 96 95 93 92 93 94 93 93 92 91 90 88 87 85 84 83 82 81 80 79 78 77 76 75 74 73 73 72 71 71 69 68 68 67 67 68 69 70 71 71 70 70 69 69 68
104 104 103 103 102 101 101 100 100 99 99 99 99 99 98 96 95 94 94 93 92 92 93 93 93 92 91 90 88 87 85 84 83 82 80 79 78 77 77 75 74 73 72 71 70 70 70 69 68 66 66 66 66 67 68 69 70 70 69 69 69 69 69
102 101 101 101 100 99 98 97 96 96 97 97 97 97 96 93 92 92 92 92 91 91 92 92 91 91 89 88 86 85 83 82 81 80 78 77 76 76 75 74 72 71 70 69 68 68 68 67 66 65 64 64 65 66 67 68 68 68 69 69 69 69 69
100 99 98 98 98 97 95 94 93 93 94 95 95 94 92 90 90 90 91 90 90 90 90 89 89 89 87 86 84 83 82 80 79 77 76 75 74 74 73 72 71 69 68 67 66 66 66 65 64 64 63 63 64 65 66 67 67 67 68 69 69 69 69
99 98 97 96 95 94 92 91 91 91 92 92 92 90 88 87 87 88 89 90 90 89 88 88 87 87 85 84 83 81 80 78 77 75 74 73 73 72 72 71 70 68 66 65 65 64 64 63 63 62 63 62 63 64 65 66 66 67 68 68 68 68 68

ECMWFFLT1_250_spd_282.txt.gz
Wind_Speed
106 105 104 103 104 104 105 105 106 106 107 107 108 108 107 105 102 101 99 98 97 96 95 94 94 93 93 93 93 93 92 91 90 89 89 89 88 87 85 84 83 82 83 86 88 87 87 87 86 86 87 87 87 88 88 88 89 91 92 93 94 96 98
106 105 105 105 105 106 107 107 107 108 109 109 109 107 105 102 101 99 98 98 97 97 96 95 95 95 94 94 95 95 94 92 92 91 91 91 91 90 89 87 85 83 83 85 87 88 88 87 86 86 87 87 86 87 88 88 89 90 91 92 93 95 97
106 106 106 107 107 108 109 109 109 110 110 109 107 105 102 101 100 99 98 98 98 97 97 96 96 96 96 96 96 96 95 94 94 93 94 94 93 92 91 89 87 86 84 84 86 88 89 88 88 88 88 88 88 88 88 88 90 91 92 93 94 95 96
108 108 109 109 109 110 110 111 112 112 110 107 105 103 101 100 99 99 99 99 98 98 98 97 97 98 97 97 97 97 97 96 95 96 96 96 95 95 93 92 90 88 86 84 85 87 89 89 89 89 89 89 89 89 90 90 91 92 93 94 95 96 96
110 111 111 111 112 112 113 113 113 111 108 105 103 102 101 100 100 100 99 99 99 99 99 98 99 99 99 98 98 98 98 97 97 97 98 98 97 96 95 94 92 90 88 86 85 86 89 90 90 90 91 91 90 91 91 91 92 93 95 96 97 97 97
113 114 114 114 114 114 115 114 112 109 106 103 102 102 101 101 101 101 100 100 100 100 100 100 100 101 100 100 100 100 99 99 99 99 100 100 99 98 97 96 94 92 90 88 86 86 88 90 90 91 92 92 91 92 93 93 93 94 96 98 99 100 100
116 116 116 116 116 116 114 112 109 106 105 103 103 102 102 102 102 102 101 101 101 101 101 101 102 102 102 102 102 101 101 101 101 101 102 102 101 100 98 97 95 93 91 89 88 87 88 90 91 92 93 93 93 93 94 94 94 95 97 98 99 101 102
118 118 118 117 116 114 112 109 107 106 105 105 105 104 103 103 102 102 102 102 102 102 102 103 103 104 104 104 104 103 103 103 103 104 104 104 103 101 100 98 97 94 92 91 89 88 88 89 91 93 94 94 94 95 95 95 95 96 97 99 100 102 104
118 118 116 115 113 111 110 108 107 107 107 107 106 105 104 104 103 103 103 103 103 103 104 104 105 105 106 106 106 105 105 105 106 106 106 105 104 102 101 99 97 95 93 91 90 89 89 90 92 94 95 95 95 96 97 97 97 97 97 98 99 102 105
116 115 114 113 112 111 110 110 109 109 109 108 107 106 105 105 105 105 104 104 104 104 105 106 106 107 108 107 107 107 107 108 108 108 107 106 105 103 101 99 97 95 94 92 90 90 90 91 93 95 95 96 97 98 98 98 98 98 98 98 99 101 105
115 114 113 113 112 112 111 111 111 111 110 109 108 107 107 106 106 106 105 105 105 106 107 107 108 108 109 109 109 109 109 109 109 108 108 106 105 103 101 99 97 95 94 93 92 91 92 93 94 96 96 98 99 99 99 99 99 99 99 99 99 101 104
114 114 114 114 114 113 113 113 113 112 111 110 109 108 108 107 107 106 106 106 106 107 108 109 109 109 110 111 111 110 110 110 110 109 107 106 105 103 101 98 96 95 94 94 93 92 93 95 96 97 98 100 100 100 100 100 100 100 100 100 100 101 102
115 115 115 115 115 115 114 114 113 112 111 110 109 109 108 108 107 106 106 106 107 108 108 109 110 110 111 112 112 111 111 110 109 108 107 105 103 101 99 97 96 96 95 95 94 94 95 97 98 99 101 102 101 101 102 102 102 101 100 100 100 101 102
115 115 115 115 115 114 113 112 111 110 109 108 108 107 106 106 106 105 105 106 107 107 108 109 109 110 111 111 111 110 109 109 108 106 105 103 101 100 98 97 96 97 97 96 95 96 97 99 101 102 102 103 103 103 104 103 103 102 101 100 100 101 102
114 114 114 113 112 111 109 108 108 107 106 106 105 105 104 104 104 104 104 105 106 106 107 108 108 109 109 109 109 109 108 107 105 104 102 101 99 98 97 97 97 98 98 97 97 98 99 102 103 104 104 105 105 105 105 105 104 103 102 101 100 101 102
112 112 111 110 109 107 106 106 106 105 105 104 104 103 102 101 101 102 103 103 104 104 105 106 106 107 106 106 106 106 106 104 102 101 100 99 98 98 97 97 99 100 99 99 100 100 102 104 105 105 107 107 107 106 106 104 103 103 102 100 100 100 101
110 109 108 107 106 105 104 104 104 104 103 103 102 102 101 99 99 99 100 101 102 102 102 103 104 104 104 103 104 104 103 101 100 99 99 98 98 98 97 99 101 102 101 101 102 103 104 106 107 108 109 109 108 107 105 103 102 102 101 100 99 99 100
107 106 105 105 104 104 103 103 103 103 103 102 102 101 100 99 98 97 98 99 99 100 100 101 101 102 102 102 102 102 101 100 99 99 99 99 98 98 99 101 103 103 103 104 105 105 106 108 109 110 110 109 108 107 105 102 101 101 100 99 98 98 98
104 103 103 103 103 103 102 102 102 102 102 102 102 101 99 98 97 96 97 97 98 98 99 99 100 101 102 101 101 101 101 101 100 99 99 99 100 100 102 104 104 104 105 106 107 108 108 109 110 110 109 107 107 106 103 101 100 99 98 97 96 96 96
102 102 102 102 102 102 102 101 102 102 102 102 101 100 99 97 96 96 97 97 97 97 98 99 100 102 102 102 101 101 102 102 102 101 101 101 102 103 105 106 106 106 107 108 109 109 110 110 110 109 107 105 105 104 102 101 99 98 96 94 93 93 93
101 101 101 102 102 102 101 101 102 102 102 101 101 100 99 97 96 97 98 97 97 97 98 100 101 102 103 103 102 102 102 103 103 104 103 104 105 106 107 107 108 108 109 109 109 109 109 109 108 107 105 104 103 103 102 101 99 97 95 93 91 90 90
101 101 102 102 102 102 102 102 103 103 102 102 101 100 99 97 97 98 98 98 97 98 100 101 102 103 104 104 104 103 104 105 106 106 106 107 108 109 109 109 109 109 109 108 107 107 107 107 107 106 104 103 102 102 102 101 100 97 95 93 91 89 89
101 101 102 102 102 103 103 103 102 102 101 100 99 99 98 97 97 98 99 98 98 100 101 102 104 105 105 105 105 106 106 107 108 109 109 110 110 110 109 109 108 107 106 106 105 104 104 104 105 104 103 102 102 102 102 101 100 97 95 93 91 89 88
99 99 99 99 100 100 100 100 100 99 98 97 96 96 96 96 97 97 97 97 98 100 102 103 104 105 106 107 107 108 109 109 110 111 111 111 110 109 108 107 106 105 104 103 102 102 102 102 103 102 102 101 101 101 101 100 99 97 95 93 92 90 88
97 97 97 97 97 98 98 98 98 97 97 96 96 96 97 98 98 97 97 96 97 99 101 102 103 104 105 107 108 108 109 110 111 111 110 109 108 106 105 104 103 102 101 100 100 100 100 101 101 101 101 101 100 99 99 99 98 96 94 93 92 89 88
98 98 97 97 98 98 99 99 99 99 98 98 98 99 100 100 100 99 98 98 98 99 100 101 102 102 104 105 107 108 109 109 110 110 109 108 106 105 103 102 102 101 100 99 99 99 99 100 100 100 100 99 98 97 97 97 95 94 93 92 90 88 87
101 101 100 100 101 101 101 101 101 101 102 102 102 103 103 103 102 102 101 101 101 101 101 101 101 102 103 105 106 107 108 108 108 108 107 106 105 104 103 102 101 100 99 99 98 98 98 99 99 99 98 98 97 96 96 95 94 93 92 91 89 87 87
104 103 103 104 104 104 103 103 104 105 105 106 106 105 105 105 105 105 104 103 103 103 102 101 102 103 104 106 107 107 108 108 107 107 107 106 106 105 104 103 102 101 100 99 98 97 97 98 98 97 97 96 95 94 94 93 92 91 90 89 87 86 86
104 105 105 105 105 105 105 106 106 108 108 108 108 108 108 108 108 107 106 105 105 104 103 103 103 104 106 107 107 107 107 107 107 107 107 107 106 105 104 103 102 101 100 98 97 96 96 96 96 95 95 94 93 93 92 91 91 90 89 88 87 86 85
104 105 106 106 107 107 107 108 109 110 110 110 110 110 110 110 109 108 108 107 105 104 104 104 104 105 106 107 107 107 107 107 107 107 106 106 106 105 104 104 103 101 99 97 96 96 95 95 94 94 93 93 92 91 90 89 89 89 88 88 86 84 83
104 105 107 107 108 109 109 110 111 111 111 111 111 111 111 110 110 109 108 107 106 105 104 104 105 106 106 106 106 106 106 106 106 106 106 106 105 104 104 103 102 100 98 96 96 96 95 93 93 92 92 91 90 89 88 88 88 88 88 87 85 83 82
103 104 106 107 108 108 109 110 111 111 111 111 111 111 110 110 109 107 107 106 106 105 104 105 105 105 105 105 105 105 105 105 105 104 104 104 104 103 102 101 100 98 97 96 95 94 93 92 92 91 90 89 88 87 87 87 87 88 87 86 84 82 81
99 101 102 103 104 105 106 107 108 108 109 109 109 108 108 107 106 106 106 105 105 104 103 103 103 103 103 104 103 103 103 103 103 102 102 102 101 100 100 99 98 97 96 95 94 93 92 91 90 89 87 86 85 85 85 86 86 86 86 84 83 81 79
94 95 96 98 99 100 102 103 103 104 104 105 105 104 104 104 103 103 104 103 103 102 101 101 101 101 101 101 101 100 100 100 100 100 99 99 98 98 97 96 96 95 94 93 92 90 90 89 88 86 85 84 83 83 84 84 85 84 84 83 82 80 78
89 90 91 92 93 95 96 97 98 99 99 100 100 100 100 100 100 100 101 101 100 100 99 99 99 98 98 98 98 97 97 98 97 97 97 96 96 95 94 94 93 93 92 91 89 88 87 86 85 84 83 82 82 82 82 83 83 82 82 81 80 78 76
86 86 87 88 89 90 90 91 92 94 95 95 96 96 96 96 96 97 97 97 97 97 97 96 96 95 95 95 95 95 95 95 95 94 94 94 93 92 91 91 91 90 89 88 87 86 85 84 83 82 81 81 80 80 81 81 80 80 79 79 78 76 74

ECMWFFLT1_250_spd_288.txt.gz
Wind_Speed
104 104 105 105 104 104 104 104 104 105 106 107 108 108 109 109 110 111 111 112 111 111 112 113 113 113 113 112 112 113 113 114 115 115 116 116 117 118 118 119 119 119 119 121 122 122 121 120 119 117 116 114 111 110 108 107 106 106 105 104 104 104 104
101 102 103 103 103 103 102 102 103 103 104 104 105 105 106 106 107 108 109 109 109 110 110 111 112 112 113 113 113 113 114 115 116 117 118 119 119 120 121 121 122 122 122 123 123 122 120 119 117 115 114 113 112 110 109 108 107 106 106 105 105 105 105
102 103 103 103 103 103 103 103 103 104 104 105 106 106 107 107 108 108 109 110 111 111 112 112 113 114 115 115 115 115 116 117 118 120 121 122 123 123 124 124 124 123 122 122 121 120 119 117 116 114 113 113 112 112 111 109 109 108 107 107 107 106 106
103 103 104 105 105 105 104 104 104 105 106 106 107 108 109 109 110 110 111 112 113 113 114 114 115 116 118 118 118 119 119 120 122 123 124 125 125 126 126 125 124 123 121 119 118 118 118 117 115 115 114 114 113 113 112 111 110 110 109 108 108 107 107
104 105 105 106 106 107 107 106 107 107 108 109 110 111 112 113 113 114 115 116 116 117 117 118 119 120 122 122 122 123 123 124 125 125 126 126 125 125 124 123 122 121 120 118 117 117 118 118 117 117 116 116 115 113 112 112 111 110 109 108 108 107 107
107 107 108 108 109 110 110 110 111 111 112 113 114 115 116 117 118 118 119 119 120 120 121 122 123 124 125 125 125 126 126 126 125 125 124 124 123 123 122 121 121 121 120 118 117 118 118 119 119 118 118 117 116 114 113 112 111 109 108 107 107 107 106
111 111 112 112 113 114 114 115 115 115 116 117 118 120 121 121 122 122 122 123 123 124 124 125 125 125 126 126 125 125 125 124 123 123 122 122 122 122 122 122 122 122 121 120 119 118 118 119 118 118 118 118 116 114 112 112 110 108 107 106 105 105 105
115 115 115 116 117 118 118 119 119 120 120 121 122 123 124 124 124 124 124 124 124 124 124 124 124 124 124 124 124 124 124 123 123 123 123 123 124 124 123 123 123 122 122 120 119 118 117 117 117 117 117 117 115 113 112 111 108 106 106 105 104 103 104
119 118 118 119 120 120 121 121 121 122 122 123 123 123 123 123 123 122 122 122 122 122 122 122 123 124 124 124 125 125 125 125 124 124 124 124 124 124 123 123 122 121 121 119 118 116 115 114 114 114 115 115 114 113 111 109 107 105 104 104 102 102 102
120 120 120 120 120 121 121 120 121 121 121 121 121 122 122 122 122 122 122 122 122 123 124 124 125 126 126 126 126 126 126 125 125 124 124 123 122 122 121 120 120 119 119 118 116 114 113 112 111 112 114 114 113 112 110 107 105 103 102 102 101 100 101
119 119 119 119 119 119 119 120 120 121 121 121 122 123 123 124 124 124 124 124 125 125 126 127 127 127 127 127 127 126 125 124 123 122 121 120 119 118 117 117 116 116 116 115 113 111 110 109 109 110 111 111 110 109 107 105 103 102 100 100 98 98 99
120 120 121 121 121 121 121 122 122 123 123 124 125 126 126 127 126 126 126 126 126 126 126 127 127 126 126 125 124 123 122 121 120 118 117 117 116 115 114 114 113 113 113 112 111 109 107 106 106 107 107 108 108 106 104 103 101 100 99 98 97 96 97
124 124 125 125 125 125 125 125 126 126 127 127 128 128 129 129 128 127 127 126 125 125 125 124 124 124 123 122 121 120 119 118 118 118 117 116 116 114 113 113 112 112 111 110 108 106 104 104 104 103 104 105 104 102 101 100 99 98 97 96 95 95 96
127 127 128 128 129 129 129 129 129 129 129 129 129 130 129 129 128 126 125 124 123 122 122 121 121 120 120 119 119 118 118 119 119 119 118 117 116 114 113 112 111 110 109 108 106 104 102 101 101 101 101 102 101 100 99 98 98 97 96 95 94 95 95
128 128 128 129 129 129 129 129 129 129 128 128 127 127 127 126 124 123 122 121 120 119 119 118 118 118 118 118 118 119 119 120 120 119 118 116 114 113 111 110 109 108 108 106 105 103 101 100 100 100 99 99 98 98 97 97 96 95 95 95 94 94 94
125 126 125 125 125 125 124 125 126 126 125 125 124 124 124 122 120 119 118 117 117 117 117 117 118 118 118 118 118 119 119 119 118 117 115 113 111 110 109 108 107 107 106 105 104 102 101 100 100 100 98 97 97 96 96 95 94 95 95 95 94 94 95
120 121 121 121 121 121 121 121 121 122 122 122 122 122 121 120 118 116 115 115 115 116 117 117 118 118 118 117 116 116 116 116 115 113 111 110 109 108 107 106 105 105 105 104 103 102 101 101 100 99 97 97 96 96 95 95 94 95 96 95 94 94 96
117 117 117 117 118 118 119 119 119 120 120 120 120 120 120 119 117 115 114 114 114 115 116 116 115 115 115 114 113 113 113 112 112 110 109 108 107 106 105 104 104 104 104 103 102 101 100 100 100 98 97 96 96 96 96 95 95 96 96 95 94 95 95
114 114 114 114 114 115 115 116 116 117 118 118 119 120 120 119 117 115 113 113 112 112 112 112 112 111 111 111 111 111 111 110 109 108 107 106 105 104 103 103 104 103 102 101 101 100 99 98 97 97 96 96 96 96 96 95 95 95 95 94 94 94 93
112 111 111 111 111 111 112 112 113 114 115 115 116 117 118 117 115 113 112 111 109 109 108 108 109 108 109 109 109 109 109 108 106 105 104 104 102 101 101 102 102 100 99 99 98 97 97 95 95 95 95 95 95 95 95 94 93 92 92 93 93 93 93
109 109 109 109 109 109 110 110 111 112 113 113 113 114 115 114 113 112 111 110 108 107 106 106 106 107 108 109 109 108 107 106 105 103 102 102 101 100 100 100 100 99 98 97 97 97 96 95 95 95 95 94 94 94 94 93 92 92 92 92 93 94 95
109 110 109 109 110 110 111 111 112 113 114 114 115 115 115 115 113 113 111 110 108 107 107 106 106 107 109 110 110 109 107 106 105 104 102 102 101 101 101 101 100 99 98 98 98 97 97 96 96 96 96 95 94 94 94 94 94 94 94 95 95 96 96
111 111 111 111 112 112 113 113 114 115 116 116 116 117 117 117 115 114 113 111 109 109 108 108 107 108 111 113 113 111 109 107 106 105 104 103 103 103 102 102 100 100 99 99 99 98 98 98 98 98 98 97 96 96 96 96 96 97 98 98 98 98 99
110 111 111 111 111 112 113 113 114 114 115 116 116 116 117 117 116 115 113 111 110 109 108 107 107 108 111 114 115 112 110 108 107 106 105 104 104 103 103 103 102 101 101 100 100 99 99 100 100 100 99 99 98 98 98 99 100 100 100 100 100 100 101
109 110 110 110 110 111 112 112 113 114 114 115 115 115 116 116 116 115 113 111 109 108 107 106 106 107 110 113 113 112 110 109 108 107 106 105 105 104 104 104 103 103 102 101 101 101 100 101 101 101 101 100 100 100 100 101 103 103 102 102 102 102 101
110 111 111 111 112 112 113 113 114 115 116 116 116 116 116 116 116 115 114 112 110 109 108 107 108 109 110 110 109 109 108 108 108 108 107 106 106 105 105 104 103 103 103 103 102 102 102 102 102 102 102 102 101 102 102 103 104 104 104 104 103 102 102
111 112 112 112 112 112 112 113 113 114 115 116 116 117 117 117 117 117 116 114 112 111 110 110 110 111 111 110 109 109 109 109 109 109 109 108 107 106 105 104 104 103 103 103 104 104 104 104 103 103 102 102 102 103 103 104 105 105 105 105 104 104 104
109 109 109 109 108 108 108 108 109 109 110 111 111 112 113 113 114 114 115 114 113 112 112 111 111 111 111 111 112 112 111 111 111 111 111 110 109 108 107 106 105 105 105 106 106 106 105 105 105 104 104 104 104 104 105 106 106 106 106 106 106 105 106
105 105 104 104 103 103 103 103 102 102 103 104 104 105 105 106 107 108 109 110 110 110 109 109 110 110 110 111 112 112 112 112 112 112 112 112 112 111 109 108 107 107 108 108 108 107 107 106 106 106 106 107 107 107 108 108 108 108 108 108 107 107 107
100 100 100 99 99 99 98 98 97 97 97 97 98 99 99 100 101 101 102 103 104 104 104 105 106 106 107 108 109 110 110 111 111 111 111 112 112 111 110 109 109 109 110 110 110 109 108 108 108 108 109 109 109 109 109 109 109 109 110 110 109 108 107
97 96 96 95 95 95 95 94 93 93 92 92 93 94 94 95 96 96 97 98 98 98 98 99 101 102 102 103 104 105 106 108 108 109 109 109 110 110 110 110 110 110 110 110 110 109 109 109 109 109 110 110 110 109 109 109 109 110 110 110 109 108 107
94 93 93 92 92 92 91 91 90 89 88 88 89 90 90 90 91 92 92 93 93 94 94 95 96 97 98 98 99 100 101 102 103 104 105 105 106 107 107 108 109 109 109 109 109 109 109 109 109 109 109 109 108 108 107 108 108 108 108 108 107 106 105
91 90 89 88 88 88 87 87 87 86 85 84 85 86 86 87 87 88 88 89 89 90 90 91 92 92 93 94 94 95 96 97 98 98 99 101 102 103 104 104 105 106 106 106 106 107 107 107 107 107 107 106 106 105 105 104 104 105 105 104 104 103 102
88 86 85 84 84 84 84 83 83 83 82 81 82 82 82 83 84 84 85 85 86 86 87 87 87 88 89 89 90 91 91 92 93 94 94 95 97 98 99 100 101 101 102 102 103 103 103 103 104 104 103 103 102 101 100 100 100 100 100 100 100 99 99
86 84 81 80 80 81 80 79 79 79 79 78 78 78 79 79 80 81 82 82 82 83 83 84 84 84 85 85 85 86 87 88 88 89 90 91 92 93 94 95 96 97 98 98 98 98 99 99 99 99 99 98 97 97 96 96 96 97 97 97 96 96 95
83 81 79 77 76 77 76 76 75 75 75 75 75 75 75 76 77 77 78 79 80 80 81 81 81 81 81 81 81 82 83 83 84 85 86 87 88 89 90 91 92 93 93 94 94 94 95 95 95 95 94 94 93 93 93 93 94 94 94 94 93 92 91